TimeAKDT,TemperatureF,Dew PointF,Humidity,Sea Level PressureIn,VisibilityMPH,Wind Direction,Wind SpeedMPH,Gust SpeedMPH,PrecipitationIn,Events,Conditions,WindDirDegrees,DateUTC
12:56 AM,10.9,5.0,77,30.40,10.0,ENE,8.1,-,N/A,,Clear,70,2012-10-22 08:56:00
1:56 AM,10.0,3.9,76,30.39,10.0,ENE,10.4,-,N/A,,Clear,70,2012-10-22 09:56:00
2:56 AM,6.1,1.0,80,30.39,10.0,Calm,Calm,-,N/A,,Clear,0,2012-10-22 10:56:00
3:56 AM,5.0,1.0,84,30.39,10.0,Calm,Calm,-,N/A,,Clear,0,2012-10-22 11:56:00
4:56 AM,1.0,-4.0,79,30.39,10.0,Calm,Calm,-,N/A,,Clear,0,2012-10-22 12:56:00
5:56 AM,-0.9,-6.0,79,30.40,10.0,Calm,Calm,-,N/A,,Clear,0,2012-10-22 13:56:00
6:25 AM,-2.2,-7.6,78,30.36,10.0,Calm,Calm,-,N/A,,Clear,0,2012-10-22 14:25:00
6:55 AM,-2.2,-7.6,78,30.40,10.0,Calm,Calm,-,N/A,,Clear,0,2012-10-22 14:55:00
7:55 AM,-4.0,-7.6,85,30.42,10.0,Calm,Calm,-,N/A,,Partly Cloudy,0,2012-10-22 15:55:00
8:55 AM,-4.0,-9.4,78,30.43,25.0,Calm,Calm,-,N/A,,Clear,0,2012-10-22 16:55:00
9:55 AM,-5.8,-9.4,84,30.43,25.0,Calm,Calm,-,N/A,,Clear,0,2012-10-22 17:55:00
10:55 AM,-0.4,-5.8,78,30.43,25.0,Calm,Calm,-,N/A,,Partly Cloudy,0,2012-10-22 18:55:00
11:55 AM,1.4,1.4,100,30.40,25.0,East,1.2,-,N/A,,Partly Cloudy,80,2012-10-22 19:55:00
12:55 PM,10.4,3.2,73,30.40,25.0,Calm,Calm,-,N/A,,Partly Cloudy,0,2012-10-22 20:55:00
1:55 PM,14.0,5.0,67,30.40,25.0,WNW,3.5,-,N/A,,Partly Cloudy,290,2012-10-22 21:55:00
2:55 PM,15.8,6.8,68,30.44,25.0,WSW,4.6,-,N/A,,Clear,240,2012-10-22 22:55:00
3:55 PM,15.8,6.8,68,30.44,25.0,West,4.6,-,N/A,,Clear,260,2012-10-22 23:55:00
4:55 PM,17.6,6.8,63,30.45,25.0,WSW,5.8,-,N/A,,Clear,250,2012-10-23 00:55:00
5:55 PM,15.8,6.8,68,30.47,25.0,SSW,4.6,-,N/A,,Clear,210,2012-10-23 01:55:00
6:55 PM,10.4,3.2,73,30.49,7.0,SW,5.8,-,N/A,,Clear,230,2012-10-23 02:55:00
7:55 PM,8.6,3.2,79,30.51,7.0,SW,4.6,-,N/A,,Clear,220,2012-10-23 03:55:00
8:55 PM,1.4,-2.2,85,30.52,7.0,South,3.5,-,N/A,,Clear,190,2012-10-23 04:55:00
9:55 PM,-0.4,-5.8,78,30.54,7.0,East,3.5,-,N/A,,Clear,80,2012-10-23 05:55:00
10:56 PM,-0.9,-6.0,79,30.56,10.0,ENE,3.5,-,N/A,,Clear,70,2012-10-23 06:56:00
11:56 PM,-2.0,-5.1,87,30.57,10.0,East,5.8,-,N/A,,Clear,80,2012-10-23 07:56:00